User: anonymous   Login
Location: Gand�
(15.0971°N, 12.6564°W)
Time: 13:53:21
(UTC+00:00)
Language:

CZ-2C R/B - Orbit

View from above orbital plane
View from above orbital plane
View from above satellite
View from above satellite

Ground track
Ground track

The orbit data is extracted from the following two-line orbital elements,

1 36089U 09061B   20294.65748971 -.00000005 +00000-0 +10486-4 0  9995
2 36089 098.1700 264.3570 0080682 247.8101 286.5282 14.49836120578693
Epoch (UTC): 20 October 2020 15:46:47
Eccentricity: 0.0080682
inclination: 98.1700°
perigee height: 669 km
apogee height: 783 km
right ascension of ascending node: 264.3570°
argument of perigee: 247.8101°
revolutions per day: 14.49836120
mean anomaly at epoch: 286.5282°
orbit number at epoch: 57869

The dashed part of the orbit path shows where the satellite is in the earth's shadow,  

DLR